Regional Weather Roundup
Issued by NWS Little Rock, AR

Home | Current Version | Previous Version | Text Only | Print | Product List | Glossary On
Versions: 1 2 3 4 5 6 7 8 9 10 11 12 13 14 15 16 17 18 19 20 21 22 23 24 25 26 27 28 29 30 31 32 33 34 35 36 37 38 39 40 41 42 43 44 45 46 47 48 49 50
000
ASUS44 KLZK 030705
RWRLZK

WEATHER ROUNDUP FOR ARKANSAS
NATIONAL WEATHER SERVICE LITTLE ROCK AR
200 AM CDT WED SEP 03 2014

NOTE: "FAIR" INDICATES FEW OR NO CLOUDS BELOW 12,000 FEET WITH NO
SIGNIFICANT WEATHER AND/OR OBSTRUCTIONS TO VISIBILITY.

ARZ001-003-010-029-030800-
NORTHWEST ARKANSAS

CITY           SKY/WX    TMP DP  RH WIND       PRES   REMARKS
FAYETTEVILLE   PTCLDY    67  66  97 S3        30.03F
FORT SMITH     CLEAR     70  68  93 E6        30.00S
HARRISON       CLOUDY    69  69 100 S5        30.05F
BENTONVILLE    PTCLDY    70  66  88 SE8       30.03F
ROGERS         MOCLDY    70  67  90 SE8       30.04F
SILOAM SPGS    PTCLDY    70  63  78 SE7       30.02F
HIGHFILL       PTCLDY   N/A N/A N/A SE6       30.02F
$$

ARZ004-005-016-030800-
NORTH CENTRAL ARKANSAS

CITY           SKY/WX    TMP DP  RH WIND       PRES   REMARKS
BATESVILLE     CLEAR     66  66 100 CALM      30.02F
FLIPPIN        CLOUDY    66  63  88 CALM      30.03F VSB 1/4
MTN HOME       PTCLDY    67  66  97 NE3       30.02F
$$

ARZ040-041-030800-
WEST CENTRAL ARKANSAS

CITY           SKY/WX    TMP DP  RH WIND       PRES   REMARKS
MENA           MOCLDY    70  68  94 CALM      30.03S
MOUNT IDA      PTCLDY    69  68  96 CALM      30.00S FOG
$$

ARZ009-017-025-026-028-030800-
NORTHEAST ARKANSAS

CITY           SKY/WX    TMP DP  RH WIND       PRES   REMARKS
CORNING          N/A     68  68 100 CALM      30.02S
JONESBORO      CLEAR     71  69  93 NW7       30.00F
NEWPORT        CLEAR     69  68  97 W12       30.02F
WALNUT RIDGE   CLEAR     68  64  88 W3        30.01F
BLYTHEVILLE    CLEAR     70  69  97 CALM      30.01S
$$

ARZ022-023-033-042-044-030800-
CENTRAL ARKANSAS

CITY           SKY/WX    TMP DP  RH WIND       PRES   REMARKS
LITTLE ROCK    PTCLDY    74  71  91 CALM      30.01F
N LITTLE ROCK    N/A     73  72  98 CALM      30.01F
JACKSONVILLE   CLEAR     71  70  96 W1        30.01F
HOT SPRINGS    CLEAR     73  70  90 CALM      30.02S
RUSSELLVILLE   CLEAR     68  66  93 CALM      30.02S FOG
CLINTON        FOG       70  70 100 CALM      30.03F VSB 1/4
$$

ARZ036-030800-
EAST ARKANSAS

CITY           SKY/WX    TMP DP  RH WIND       PRES   REMARKS
WEST MEMPHIS   CLEAR     72  72 100 W3        29.98F
$$

ARZ050-053-066-070-073-030800-
SOUTHWEST ARKANSAS

CITY           SKY/WX    TMP DP  RH WIND       PRES   REMARKS
ARKADELPHIA    FAIR      71  71 100 CALM      30.01S FOG
CAMDEN         MOCLDY    72  68  88 CALM      30.01S FOG
TEXARKANA      MOCLDY    72  72 100 CALM      29.99S FOG
EL DORADO      FOG       71  71 100 CALM      30.01S VSB 1/2
DE QUEEN       CLEAR     71  70  96 E5        29.97F
$$

ARZ056-057-069-030800-
SOUTHEAST ARKANSAS

CITY           SKY/WX    TMP DP  RH WIND       PRES   REMARKS
PINE BLUFF     PTCLDY    72  70  93 CALM      30.01S FOG
STUTTGART      CLOUDY    75  72  88 CALM      30.01F VSB 1/4
MONTICELLO     CLEAR     72  70  93 CALM      30.01S

$$




USA.gov is the U.S. government's official web portal to all federal, state and local government web resources and services.